[[{"header":{"parameterUnit":"m.s-1","parameterCategory":1,"la1":30.2991,"la2":30.254,"lo1":-89.0895,"lo2":-89.0444,"dy":0.0017,"dx":0.0017,"nx":28,"ny":28,"refTime":"2023-10-30T03:00:00:Z","depth":0,"parameterNumber":2,"parameterNumberName":"U-component_of_WINDS"},"data":[0,0,0,0,0,0,0,0,0,0,0,0,0,0,0,0,0,0,0,0,0,0,0,0,0,0,0,0,0,0,0,0,0,0,0,0,0,0,0,0,0,0,0,0,0,0,0,0,0,0,0,0,0,0,0,0,0,0,0.0623,0.0622,0,0.0576,0.0575,0.0575,0.0573,0.0574,0.0574,0.0575,0.0526,0.0524,0.0522,0,0,0,0,0,0,0,0,0,0,0,0,0,0.0711,0.071,0.0623,0.0622,0.0622,0.0576,0.0575,0.0575,0.0573,0.0574,0.0574,0.0575,0.0526,0.0524,0.0522,0,0,0,0,0,0,0,0,0,0,0,0,0,0.0669,0.0709,0.0623,0.0615,0.0614,0.0576,0.0575,0.0575,0.0573,0.0574,0.0575,0.0575,0.0527,0.0524,0.0522,0.0488,0,0,0.0513,0.0512,0,0,0,0,0,0,0,0,0.0672,0.0666,0.0617,0.0616,0.0615,0.0581,0.0589,0.0545,0.0573,0.0589,0.0575,0.0576,0.0543,0.0539,0.0529,0.0485,0.0483,0.0513,0.0511,0.051,0.0509,0,0,0,0,0,0,0,0.0675,0.0668,0.0604,0.0616,0.0615,0.0614,0.0609,0.058,0.0562,0.0587,0.0587,0.0582,0.0543,0.0531,0.0527,0.0482,0.0513,0.0511,0.0509,0.0508,0.041,0.0409,0,0,0,0,0,0,0.0679,0.0671,0.0606,0.0603,0.0646,0.0612,0.0607,0.0591,0.0562,0.0559,0.0581,0.0582,0.0536,0.0531,0.0526,0.0484,0.051,0.0507,0.0506,0.0411,0.041,0.0409,0,0,0,0,0,0,0.0681,0.0673,0.0608,0.0637,0.0628,0.061,0.0592,0.059,0.0578,0.0557,0.0554,0.0572,0.0536,0.053,0.0497,0.0482,0.0506,0.0504,0.0412,0.041,0.0409,0.0401,0,0,0,0,0,0,0.0684,0.0674,0.0661,0.0636,0.0627,0.058,0.0592,0.0588,0.0574,0.0574,0.0548,0.0545,0.0536,0.0501,0.0495,0.0479,0.0502,0.0413,0.0411,0.0409,0.0402,0.0399,0.0397,0,0,0,0,0,0.0687,0.066,0.066,0.0652,0.061,0.0579,0.0574,0.0564,0.0572,0.0559,0.0546,0.0546,0.0486,0.0498,0.049,0.0474,0.0414,0.0412,0.041,0.0403,0.04,0.0397,0,0,0,0,0,0,0.0682,0.0656,0.0656,0.0621,0.0602,0.0579,0.0561,0.0561,0.0539,0.054,0.053,0.0524,0.0492,0.048,0.0494,0.044,0.0451,0.0447,0.0449,0.0445,0.0442,0.0445,0.0499,0,0,0,0,0,0.0677,0.0655,0.0633,0.0604,0.0595,0.058,0.0566,0.0561,0.0541,0.0533,0.0517,0.0498,0.0475,0.0459,0.0437,0.0401,0.0395,0.0386,0.0383,0.0381,0.0377,0.0358,0.0354,0.0401,0.0402,0.0402,0,0,0.0666,0.065,0.0636,0.0603,0.0588,0.0565,0.0573,0.0548,0.0531,0.0529,0.0497,0.0486,0.0463,0.0429,0.0414,0.0418,0.0363,0.0378,0.0377,0.0374,0.0355,0.0351,0.0347,0.04,0.04,0.0401,0,0,0.0634,0.062,0.0594,0.0579,0.0556,0.0547,0.0541,0.0518,0.051,0.0479,0.0477,0.0457,0.0417,0.0401,0.0388,0.0352,0.0351,0.0345,0.033,0.0311,0.0307,0.0304,0.0291,0.0286,0.0342,0.0342,0.0342,0,0.0623,0.0588,0.0581,0.0556,0.0541,0.054,0.0514,0.05,0.0471,0.0461,0.0467,0.0417,0.0402,0.0365,0.0356,0.0346,0.0338,0.0347,0.0308,0.0305,0.0302,0.0289,0.0284,0.0341,0.0341,0.0341,0.0341,0,0.0576,0.0552,0.0534,0.0507,0.0491,0.0465,0.0454,0.0438,0.0435,0.0425,0.0393,0.0376,0.035,0.0341,0.0337,0.0303,0.0306,0.0311,0.0321,0.0296,0.0284,0.028,0.034,0.034,0.0341,0.0341,0,0,0.0538,0.0508,0.0502,0.0489,0.0465,0.0446,0.0422,0.0397,0.0384,0.0365,0.0343,0.031,0.0315,0.03,0.0294,0.0278,0.0251,0.0284,0.0284,0.0278,0.0212,0.0209,0.0203,0.0251,0.025,0.0249,0.0214,0,0.0503,0.0458,0.0451,0.0412,0.039,0.0389,0.0368,0.0351,0.0341,0.0321,0.0311,0.0287,0.0295,0.0286,0.027,0.0258,0.0237,0.026,0.0231,0.023,0.0235,0.0197,0.0193,0.016,0.0209,0.0209,0.0208,0,0.0456,0.0436,0.0394,0.0374,0.0365,0.0345,0.0322,0.0303,0.0284,0.0279,0.0263,0.026,0.0234,0.0247,0.0212,0.0228,0.0215,0.0208,0.0206,0.0202,0.0216,0.0191,0.015,0.0144,0.0201,0.0201,0.0202,0,0.0431,0.0394,0.0365,0.0355,0.0331,0.0317,0.0306,0.0288,0.0274,0.0255,0.0246,0.0223,0.0211,0.0193,0.0185,0.0195,0.015,0.0162,0.0144,0.0144,0.0133,0.0134,0.0088,0.0127,0.0127,0.0127,0.0128,0,0.0392,0.0367,0.0354,0.0336,0.0308,0.03,0.0273,0.0262,0.0247,0.0227,0.0225,0.0206,0.0196,0.0176,0.017,0.0141,0.0136,0.013,0.0129,0.013,0.013,0.0121,0.0122,0.0126,0.0126,0.0127,0.0127,0,0.0359,0.035,0.0318,0.0298,0.0293,0.0273,0.0256,0.0239,0.023,0.0205,0.0199,0.0185,0.0161,0.0152,0.0122,0.0118,0.0085,0.0086,0.0092,0.0091,0.0073,0.0075,0.0019,0.0011,0.0056,0.0056,0.0056,0,0.0334,0.0315,0.0294,0.0281,0.027,0.0248,0.0234,0.0227,0.0212,0.019,0.0175,0.0152,0.0133,0.0095,0.0083,0.0061,0.006,0.0042,0.0057,0.0059,0.0059,0.006,0.0058,0.0039,0.0039,0.0038,0.0038,0,0.0291,0.0288,0.0267,0.0246,0.023,0.0212,0.0195,0.0185,0.0175,0.0159,0.0135,0.012,0.0091,0.0068,0.0045,0.0035,0.0034,0.0034,0.0028,0.0029,0.0033,0.003,0.0083,0.0035,0.0035,0.0035,0.0035,0.0036,0.0261,0.0244,0.0226,0.0204,0.0191,0.0176,0.0159,0.0149,0.0129,0.0104,0.0102,0.0076,0.0059,0.0029,0.0018,-0.0002,0.0002,-0.0005,-0.0008,-0.001,-0.0011,0.0037,-0.0006,-0.0006,-0.0006,-0.0006,-0.0006,0,0.0217,0.0206,0.0186,0.0163,0.0146,0.0148,0.013,0.0116,0.0093,0.0077,0.0059,0.0032,0.001,-0.0003,-0.0025,-0.0039,-0.0039,-0.0044,-0.0044,-0.0046,-0.0014,-0.0007,-0.0043,-0.0043,-0.0043,-0.0043,-0.0043,-0.0043,0.0192,0.0163,0.0158,0.0123,0.0113,0.0088,0.0077,0.0063,0.0051,0.0021,0.0003,-0.0006,-0.002,-0.0043,-0.0063,-0.0066,-0.0075,-0.008,-0.0083,-0.0053,-0.0049,-0.0045,-0.0039,-0.0082,-0.0082,-0.0115,-0.0115,-0.0115]},{"header":{"parameterUnit":"m.s-1","parameterCategory":1,"la1":30.2991,"la2":30.254,"lo1":-89.0895,"lo2":-89.0444,"dy":0.0017,"dx":0.0017,"nx":28,"ny":28,"refTime":"2023-10-30T03:00:00:Z","depth":0,"parameterNumber":3,"parameterNumberName":"V-component_of_WINDS"},"data":[0,0,0,0,0,0,0,0,0,0,0,0,0,0,0,0,0,0,0,0,0,0,0,0,0,0,0,0,0,0,0,0,0,0,0,0,0,0,0,0,0,0,0,0,0,0,0,0,0,0,0,0,0,0,0,0,0,0,-8.1951,-8.1953,0,-8.2072,-8.2073,-8.2074,-8.2003,-8.2,-8.1997,-8.1993,-8.2109,-8.2116,-8.2122,0,0,0,0,0,0,0,0,0,0,0,0,0,-8.1653,-8.1659,-8.1951,-8.1953,-8.1954,-8.2071,-8.2073,-8.2075,-8.2004,-8.2,-8.1996,-8.1992,-8.2107,-8.2115,-8.2122,0,0,0,0,0,0,0,0,0,0,0,0,0,-8.1779,-8.1661,-8.1951,-8.1933,-8.1933,-8.2071,-8.2073,-8.2075,-8.2005,-8.2,-8.1995,-8.199,-8.2105,-8.2114,-8.2123,-8.2284,0,0,-8.2152,-8.2156,0,0,0,0,0,0,0,0,-8.1772,-8.179,-8.1934,-8.1935,-8.1935,-8.2017,-8.201,-8.2145,-8.2006,-8.1977,-8.1993,-8.1987,-8.2083,-8.2093,-8.2127,-8.2289,-8.2294,-8.2153,-8.2159,-8.2163,-8.2165,0,0,0,0,0,0,0,-8.1763,-8.1784,-8.1998,-8.1936,-8.1937,-8.1917,-8.1929,-8.2036,-8.2057,-8.1979,-8.1975,-8.199,-8.2081,-8.2118,-8.2129,-8.2296,-8.2153,-8.2161,-8.2167,-8.217,-8.2595,-8.26,0,0,0,0,0,0,-8.1756,-8.1777,-8.1995,-8.2002,-8.1839,-8.1926,-8.194,-8.1996,-8.2056,-8.206,-8.1994,-8.1986,-8.2105,-8.2118,-8.2133,-8.2325,-8.2163,-8.2171,-8.2177,-8.2589,-8.2596,-8.2602,0,0,0,0,0,0,-8.175,-8.1777,-8.199,-8.1889,-8.1914,-8.1937,-8.2,-8.2001,-8.2038,-8.2067,-8.207,-8.2029,-8.2101,-8.212,-8.2247,-8.2327,-8.2176,-8.2184,-8.2582,-8.2591,-8.2599,-8.2709,0,0,0,0,0,0,-8.1742,-8.1775,-8.1838,-8.1891,-8.192,-8.2105,-8.2005,-8.2007,-8.2055,-8.2046,-8.21,-8.2104,-8.2099,-8.2234,-8.2257,-8.2338,-8.2191,-8.2575,-8.2586,-8.2596,-8.2698,-8.272,-8.2739,0,0,0,0,0,-8.1732,-8.1862,-8.1841,-8.1868,-8.1999,-8.2109,-8.2126,-8.2119,-8.2062,-8.2124,-8.2143,-8.2102,-8.2315,-8.2247,-8.2272,-8.2358,-8.257,-8.2583,-8.2595,-8.2689,-8.2716,-8.2738,0,0,0,0,0,0,-8.1815,-8.1869,-8.1846,-8.1998,-8.205,-8.2097,-8.2175,-8.2148,-8.2215,-8.2203,-8.219,-8.2203,-8.2336,-8.2359,-8.2283,-8.2516,-8.2433,-8.2452,-8.2496,-8.2521,-8.2541,-8.2533,-8.2199,0,0,0,0,0,-8.1852,-8.1939,-8.198,-8.211,-8.2137,-8.2153,-8.22,-8.2191,-8.2243,-8.2264,-8.2292,-8.2342,-8.242,-8.2472,-8.2546,-8.2701,-8.2711,-8.2772,-8.2792,-8.2809,-8.2825,-8.2908,-8.2936,-8.2644,-8.2644,-8.2643,0,0,-8.1927,-8.1967,-8.2022,-8.2128,-8.2167,-8.2256,-8.2171,-8.2268,-8.2333,-8.2278,-8.2401,-8.2423,-8.2478,-8.262,-8.2684,-8.2644,-8.2908,-8.2825,-8.2838,-8.2845,-8.2924,-8.2952,-8.2976,-8.2652,-8.2651,-8.2649,0,0,-8.211,-8.215,-8.2262,-8.2304,-8.2366,-8.2375,-8.2402,-8.2454,-8.2468,-8.2591,-8.2552,-8.2627,-8.2763,-8.2804,-8.2842,-8.3042,-8.3006,-8.3066,-8.3171,-8.3253,-8.3276,-8.3296,-8.3367,-8.3393,-8.3081,-8.3082,-8.3082,0,-8.2195,-8.233,-8.2323,-8.2424,-8.2471,-8.2428,-8.2541,-8.2581,-8.2662,-8.2694,-8.2648,-8.2818,-8.2852,-8.3003,-8.3052,-8.3085,-8.3114,-8.3059,-8.3274,-8.3294,-8.3313,-8.338,-8.3407,-8.3088,-8.3088,-8.3087,-8.3086,0,-8.2431,-8.2525,-8.2608,-8.2691,-8.2747,-8.2854,-8.2861,-8.2919,-8.2905,-8.2918,-8.3044,-8.3083,-8.3164,-8.32,-8.3186,-8.3349,-8.3322,-8.3276,-8.3192,-8.3348,-8.3411,-8.3436,-8.3098,-8.3096,-8.3094,-8.3092,0,0,-8.2669,-8.2749,-8.2779,-8.2816,-8.2881,-8.2952,-8.3056,-8.3138,-8.3187,-8.3244,-8.333,-8.3446,-8.3404,-8.3448,-8.3438,-8.351,-8.3665,-8.3454,-8.3455,-8.3492,-8.3846,-8.3881,-8.3911,-8.3642,-8.3647,-8.3651,-8.3842,0,-8.2856,-8.3041,-8.3038,-8.3208,-8.3294,-8.3254,-8.3344,-8.3393,-8.3408,-8.3481,-8.3497,-8.358,-8.3517,-8.3544,-8.3613,-8.3632,-8.3736,-8.3618,-8.372,-8.3724,-8.3707,-8.3944,-8.3981,-8.4159,-8.3866,-8.387,-8.3873,0,-8.3098,-8.3167,-8.3347,-8.34,-8.3436,-8.3517,-8.3592,-8.3663,-8.3717,-8.3723,-8.3773,-8.3752,-8.3855,-8.377,-8.3911,-8.3831,-8.3872,-8.3888,-8.3894,-8.3903,-8.3808,-8.3959,-8.4216,-8.4242,-8.3912,-8.3909,-8.3906,0,-8.3254,-8.3391,-8.3516,-8.3549,-8.3614,-8.3672,-8.3702,-8.375,-8.38,-8.3864,-8.3896,-8.3971,-8.4012,-8.4069,-8.4068,-8.4007,-8.4211,-8.4126,-8.4217,-8.4218,-8.4262,-8.4259,-8.4529,-8.429,-8.4289,-8.4289,-8.4288,0,-8.3463,-8.3574,-8.3587,-8.3664,-8.3787,-8.3782,-8.3903,-8.3926,-8.397,-8.4049,-8.4019,-8.4093,-8.4088,-8.4162,-8.4162,-8.4279,-8.4297,-8.4304,-8.4302,-8.4306,-8.4306,-8.4333,-8.432,-8.4296,-8.4294,-8.4293,-8.4292,0,-8.3657,-8.367,-8.3804,-8.3856,-8.3871,-8.396,-8.4002,-8.4074,-8.4087,-8.4188,-8.4211,-8.4231,-8.4317,-8.4322,-8.4421,-8.4421,-8.4562,-8.4547,-8.4545,-8.4543,-8.4634,-8.4625,-8.493,-8.4969,-8.4705,-8.4708,-8.471,0,-8.3789,-8.3874,-8.3936,-8.3988,-8.4021,-8.4105,-8.4157,-8.4155,-8.4209,-8.4277,-8.434,-8.4424,-8.4491,-8.4631,-8.4652,-8.4727,-8.4713,-8.4815,-8.4724,-8.4726,-8.4714,-8.4709,-8.4717,-8.4833,-8.4835,-8.4838,-8.484,0,-8.4022,-8.4025,-8.4101,-8.4181,-8.4243,-8.4305,-8.4362,-8.4406,-8.441,-8.4472,-8.4562,-8.4614,-8.4716,-8.4799,-8.4873,-8.49,-8.4871,-8.4869,-8.4894,-8.4899,-8.4894,-8.4897,-8.4593,-8.4861,-8.4859,-8.4858,-8.4856,-8.4856,-8.4189,-8.4263,-8.4318,-8.4404,-8.4448,-8.4502,-8.4573,-8.4596,-8.4671,-8.4756,-8.475,-8.4849,-8.4899,-8.4996,-8.5029,-8.5104,-8.5069,-8.5106,-8.5115,-8.5124,-8.5134,-8.4883,-8.5118,-8.5117,-8.5116,-8.5116,-8.5116,0,-8.442,-8.4454,-8.4534,-8.4616,-8.4684,-8.4653,-8.4715,-8.4772,-8.4861,-8.4912,-8.4979,-8.5082,-8.5162,-8.5191,-8.5269,-8.5324,-8.5312,-8.5344,-8.534,-8.5347,-8.516,-8.5131,-8.5353,-8.5353,-8.5352,-8.5352,-8.5352,-8.5352,-8.4548,-8.4672,-8.4682,-8.4826,-8.4858,-8.4957,-8.4995,-8.5044,-8.5085,-8.5202,-8.527,-8.5289,-8.5331,-8.5412,-8.5484,-8.549,-8.552,-8.5558,-8.5558,-8.5383,-8.536,-8.5337,-8.5309,-8.5564,-8.5565,-8.5737,-8.5739,-8.574]}]]